Hourly Data Report for October 05, 2015

All times are specified in Local Standard Time (LST). Add 1 hour to adjust for Daylight Saving Time where and when it is observed.

WINNIPEG A CS
MANITOBA

49°55'00.000" N
97°14'58.000" W
238.70 m
502S001
71849
XWG

Download Data

Hourly Data (October 2015)
Hourly Data Report for October 5, 2015
Temp Definition
°C
Dew Point Temp Definition
°C
Rel Hum Definition
%
Wind Dir Definition
10's deg

Wind Spd Definition
km/h
Visibility Definition
km
Stn Press Definition
kPa
Hmdx Definition


Wind Chill Definition


Weather Definition


TIME
00:00 12.5 5.8 64 18 24   98.88     LegendNANA
01:00 12.5 5.9 64 18 25   98.83     LegendNANA
02:00 12.4 6.0 65 19 21   98.81     LegendNANA
03:00 12.4 6.3 66 19 22   98.78     LegendNANA
04:00 12.3 6.6 68 19 22   98.76     LegendNANA
05:00 12.2 7.3 72 20 20   98.76     LegendNANA
06:00 11.9 8.0 77 21 19   98.75     LegendNANA
07:00 11.9 9.0 82 22 19   98.73     LegendNANA
08:00 11.3 9.5 89 21 19   98.75     LegendNANA
09:00 11.1 9.9 93 23 19   98.77     LegendNANA
10:00 11.3 10.1 92 23 18   98.78     LegendNANA
11:00 12.3 9.9 85 24 17   98.75     LegendNANA
12:00 13.0 9.9 82 24 22   98.73     LegendNANA
13:00 12.6 9.2 80 25 20   98.73     LegendNANA
14:00 11.5 9.6 88 28 17   98.71     LegendNANA
15:00 13.2 10.3 82 27 20   98.69     LegendNANA
16:00 11.4 9.0 85 29 15   98.72     LegendNANA
17:00 12.3 8.7 79 28 17   98.75     LegendNANA
18:00 11.5 7.4 76 27 17   98.79     LegendNANA
19:00 9.9 6.6 80 25 15   98.82     LegendNANA
20:00 8.6 6.0 84 25 13   98.85     LegendNANA
21:00 6.2 3.9 85 26 9   98.88     LegendNANA
22:00 7.2 5.6 90 25 13   98.91     LegendNANA
23:00 7.3 5.2 87 26 13   98.93     LegendNANA

Notes on Data Quality.

Legend

  • E = Estimated
  • M = Missing
  • NA = Not Available
  • ‡ = Partner data that is not subject to review by the National Climate Archives
Date modified: